H1 CPF 2 NER 2024 6 15 9 167 01 glonass145 H2 2213001 9145 54031 2024 6 15 0 0 0 2024 6 18 23 45 0 900 1 1 0 0 0 1 H9 10 0 60476 0.00000 0 6640604.735 24594974.179 -1512914.199 10 0 60476 900.00000 0 6781279.051 24544565.871 1697641.580 10 0 60476 1800.00000 0 6787753.121 24113329.618 4875265.024 10 0 60476 2700.00000 0 6611666.624 23328603.113 7958313.347 10 0 60476 3600.00000 0 6211749.476 22228953.533 10886975.554 10 0 60476 4500.00000 0 5555814.125 20862532.005 13604429.922 10 0 60476 5400.00000 0 4622369.631 19285046.590 16057943.606 10 0 60476 6300.00000 0 3401788.678 17557438.638 18199893.251 10 0 60476 7200.00000 0 1896977.399 15743359.661 19988687.059 10 0 60476 8100.00000 0 123518.575 13906553.985 21389570.752 10 0 60476 9000.00000 0 -1890719.294 12108256.255 22375302.151 10 0 60476 9900.00000 0 -4106492.323 10404712.122 22926681.502 10 0 60476 10800.00000 0 -6474574.685 8844925.206 23032927.431 10 0 60476 11700.00000 0 -8937578.735 7468723.974 22691891.209 10 0 60476 12600.00000 0 -11432127.568 6305228.878 21910104.887 10 0 60476 13500.00000 0 -13891290.904 5371783.426 20702661.934 10 0 60476 14400.00000 0 -16247184.048 4673393.607 19092932.045 10 0 60476 15300.00000 0 -18433622.431 4202698.835 17112114.844 10 0 60476 16200.00000 0 -20388721.596 3940475.413 14798640.390 10 0 60476 17100.00000 0 -22057334.312 3856651.024 12197427.298 10 0 60476 18000.00000 0 -23393222.870 3911787.223 9359012.363 10 0 60476 18900.00000 0 -24360875.397 4058966.923 6338568.213 10 0 60476 19800.00000 0 -24936889.732 4246006.542 3194828.042 10 0 60476 20700.00000 0 -25110866.404 4417898.470 -11061.346 10 0 60476 21600.00000 0 -24885772.988 4519379.477 -3216735.336 10 0 60476 22500.00000 0 -24277764.458 4497515.202 -6359832.070 10 0 60476 23400.00000 0 -23315467.268 4304190.015 -9379213.070 10 0 60476 24300.00000 0 -22038757.705 3898395.590 -12216159.224 10 0 60476 25200.00000 0 -20497086.505 3248220.148 -14815518.052 10 0 60476 26100.00000 0 -18747420.911 2332453.156 -17126779.267 10 0 60476 27000.00000 0 -16851891.366 1141736.791 -19105057.383 10 0 60476 27900.00000 0 -14875242.224 -320785.222 -20711962.253 10 0 60476 28800.00000 0 -12882193.822 -2039349.387 -21916340.900 10 0 60476 29700.00000 0 -10934826.481 -3985990.414 -22694876.740 10 0 60476 30600.00000 0 -9090095.648 -6121478.442 -23032535.328 10 0 60476 31500.00000 0 -7397581.484 -8396736.824 -22922848.692 10 0 60476 32400.00000 0 -5897565.964 -10754681.821 -22368033.551 10 0 60476 33300.00000 0 -4619516.567 -13132408.052 -21378941.729 10 0 60476 34200.00000 0 -3581038.514 -15463629.218 -19974844.246 10 0 60476 35100.00000 0 -2787337.752 -17681273.096 -18183053.500 10 0 60476 36000.00000 0 -2231215.616 -19720123.410 -16038390.983 10 0 60476 36900.00000 0 -1893593.894 -21519399.172 -13582510.734 10 0 60476 37800.00000 0 -1744546.917 -23025164.620 -10863091.460 10 0 60476 38700.00000 0 -1744796.167 -24192469.880 -7932912.685 10 0 60476 39600.00000 0 -1847603.601 -24987133.461 -4848832.626 10 0 60476 40500.00000 0 -2000983.190 -25387092.611 -1670687.355 10 0 60476 41400.00000 0 -2150136.857 -25383265.438 1539867.556 10 0 60476 42300.00000 0 -2240011.610 -24979889.031 4720550.519 10 0 60476 43200.00000 0 -2217869.517 -24194319.641 7809659.431 10 0 60476 44100.00000 0 -2035761.682 -23056303.436 10747265.886 10 0 60476 45000.00000 0 -1652801.371 -21606748.399 13476374.926 10 0 60476 45900.00000 0 -1037139.911 -19896048.736 15944028.001 10 0 60476 46800.00000 0 -167561.371 -17982031.700 18102327.930 10 0 60476 47700.00000 0 965371.936 -15927612.438 19909366.246 10 0 60476 48600.00000 0 2358672.402 -13798254.438 21330035.253 10 0 60476 49500.00000 0 3996806.983 -11659341.114 22336709.404 10 0 60476 50400.00000 0 5852110.512 -9573567.668 22909782.998 10 0 60476 51300.00000 0 7885716.782 -7598461.397 23038053.947 10 0 60476 52200.00000 0 10048970.216 -5784133.222 22718946.146 10 0 60476 53100.00000 0 12285260.776 -4171353.642 21958565.840 10 0 60476 54000.00000 0 14532207.077 -2790032.839 20771590.518 10 0 60476 54900.00000 0 16724097.904 -1658167.868 19180991.769 10 0 60476 55800.00000 0 18794491.225 -781300.540 17217596.768 10 0 60476 56700.00000 0 20678862.782 -152508.228 14919496.061 10 0 60476 57600.00000 0 22317193.906 247072.478 12331308.386 10 0 60476 58500.00000 0 23656390.173 447211.766 9503316.238 10 0 60476 59400.00000 0 24652429.312 487086.391 6490488.602 10 0 60476 60300.00000 0 25272147.762 413377.274 3351409.784 10 0 60476 61200.00000 0 25494590.294 278046.136 147135.464 10 0 60476 62100.00000 0 25311865.455 135886.252 -3060001.221 10 0 60476 63000.00000 0 24729470.461 41952.122 -6207609.588 10 0 60476 63900.00000 0 23766071.665 48978.168 -9234462.577 10 0 60476 64800.00000 0 22452749.899 204896.995 -12081694.530 10 0 60476 65700.00000 0 20831742.672 550563.500 -14693951.415 10 0 60476 66600.00000 0 18954736.533 1117782.171 -17020470.470 10 0 60476 67500.00000 0 16880781.822 1927721.926 -19016067.899 10 0 60476 68400.00000 0 14673917.748 2989786.146 -20642015.417 10 0 60476 69300.00000 0 12400607.675 4300986.190 -21866788.797 10 0 60476 70200.00000 0 10127092.041 5845845.266 -22666674.445 10 0 60476 71100.00000 0 7916769.347 7596837.181 -23026222.900 10 0 60476 72000.00000 0 5827714.095 9515341.997 -22938541.240 10 0 60476 72900.00000 0 3910434.342 11553079.060 -22405419.484 10 0 60476 73800.00000 0 2205961.218 13653957.987 -21437289.201 10 0 60476 74700.00000 0 744348.695 15756270.814 -20053015.625 10 0 60476 75600.00000 0 -456355.412 17795134.388 -18279527.597 10 0 60476 76500.00000 0 -1390625.928 19705081.677 -16151292.592 10 0 60476 77400.00000 0 -2065444.339 21422694.409 -13709646.950 10 0 60476 78300.00000 0 -2499752.625 22889167.698 -11001994.079 10 0 60476 79200.00000 0 -2723401.228 24052700.016 -8080885.902 10 0 60476 80100.00000 0 -2775636.561 24870608.995 -5003005.121 10 0 60476 81000.00000 0 -2703192.713 25311084.889 -1828067.785 10 0 60476 81900.00000 0 -2558068.513 25354508.504 1382332.732 10 0 60476 82800.00000 0 -2395084.309 24994278.528 4565917.978 10 0 60476 83700.00000 0 -2269322.032 24237113.599 7660929.854 10 0 60476 84600.00000 0 -2233556.986 23102816.392 10607325.880 10 0 60476 85500.00000 0 -2335790.133 21623509.408 13347941.155 10 0 60477 0.00000 0 -2616985.359 19842374.344 15829594.375 10 0 60477 900.00000 0 -3109107.792 17811946.387 18004117.969 10 0 60477 1800.00000 0 -3833546.063 15592036.680 19829289.327 10 0 60477 2700.00000 0 -4799986.176 13247365.974 21269649.826 10 0 60477 3600.00000 0 -6005785.061 10845009.817 22297192.719 10 0 60477 4500.00000 0 -7435871.418 8451760.202 22891908.156 10 0 60477 5400.00000 0 -9063179.445 6131512.953 23042174.700 10 0 60477 6300.00000 0 -10849598.791 3942788.917 22744989.736 10 0 60477 7200.00000 0 -12747402.573 1936491.470 22006034.037 10 0 60477 8100.00000 0 -14701095.239 153993.083 20839568.837 10 0 60477 9000.00000 0 -16649604.386 -1374369.917 19268166.748 10 0 60477 9900.00000 0 -18528725.941 -2630332.107 17322280.996 10 0 60477 10800.00000 0 -20273721.218 -3608220.559 15039660.549 10 0 60477 11700.00000 0 -21821957.512 -4314941.962 12464621.675 10 0 60477 12600.00000 0 -23115481.632 -4769436.381 9647189.549 10 0 60477 13500.00000 0 -24103418.112 -5001621.297 6642126.160 10 0 60477 14400.00000 0 -24744090.870 -5050871.167 3507863.347 10 0 60477 15300.00000 0 -25006778.419 -4964097.561 305361.979 10 0 60477 16200.00000 0 -24873028.038 -4793512.038 -2903080.017 10 0 60477 17100.00000 0 -24337472.929 -4594167.543 -6055046.803 10 0 60477 18000.00000 0 -23408117.373 -4421383.637 -9089226.315 10 0 60477 18900.00000 0 -22106077.595 -4328165.800 -11946609.738 10 0 60477 19800.00000 0 -20464789.106 -4362729.273 -14571644.634 10 0 60477 20700.00000 0 -18528713.942 -4566233.291 -16913318.583 10 0 60477 21600.00000 0 -16351602.342 -4970822.395 -18926151.887 10 0 60477 22500.00000 0 -13994382.014 -5598058.307 -20571080.004 10 0 60477 23400.00000 0 -11522763.637 -6457809.027 -21816208.777 10 0 60477 24300.00000 0 -9004662.819 -7547642.346 -22637428.276 10 0 60477 25200.00000 0 -6507545.976 -8852749.608 -23018874.087 10 0 60477 26100.00000 0 -4095810.433 -10346403.141 -22953227.794 10 0 60477 27000.00000 0 -1828307.155 -11990928.466 -22441851.644 10 0 60477 27900.00000 0 243891.784 -13739150.852 -21494755.420 10 0 60477 28800.00000 0 2079389.319 -15536256.033 -20130396.674 10 0 60477 29700.00000 0 3647945.659 -17321987.665 -18375318.498 10 0 60477 30600.00000 0 4931486.574 -19033090.135 -16263631.945 10 0 60477 31500.00000 0 5924597.324 -20605894.988 -13836353.088 10 0 60477 32400.00000 0 6634483.281 -21978943.275 -11140607.362 10 0 60477 33300.00000 0 7080400.482 -23095534.502 -8228716.355 10 0 60477 34200.00000 0 7292581.398 -23906095.732 -5157184.504 10 0 60477 35100.00000 0 7310702.271 -24370271.850 -1985605.106 10 0 60477 36000.00000 0 7181957.501 -24458649.456 1224493.328 10 0 60477 36900.00000 0 6958822.967 -24154042.083 4410838.065 10 0 60477 37800.00000 0 6696603.191 -23452282.712 7511617.461 10 0 60477 38700.00000 0 6450866.271 -22362490.057 10466677.273 10 0 60477 39600.00000 0 6274875.149 -20906797.089 13218684.769 10 0 60477 40500.00000 0 6217123.907 -19119552.662 15714238.218 10 0 60477 41400.00000 0 6319083.304 -17046029.012 17904900.407 10 0 60477 42300.00000 0 6613250.950 -14740688.473 19748136.408 10 0 60477 43200.00000 0 7121588.759 -12265080.970 21208137.711 10 0 60477 44100.00000 0 7854414.085 -9685459.106 22256517.069 10 0 60477 45000.00000 0 8809792.045 -7070209.298 22872860.843 10 0 60477 45900.00000 0 9973455.621 -4487205.018 23045128.289 10 0 60477 46800.00000 0 11319258.137 -2001191.300 22769890.018 10 0 60477 47700.00000 0 12810140.509 328691.460 22052400.804 10 0 60477 48600.00000 0 14399574.095 2451142.202 20906504.875 10 0 60477 49500.00000 0 16033420.019 4324600.052 19354374.910 10 0 60477 50400.00000 0 17652128.163 5918732.707 17426089.061 10 0 60477 51300.00000 0 19193184.507 7215450.819 15159053.409 10 0 60477 52200.00000 0 20593704.686 8209406.513 12597280.279 10 0 60477 53100.00000 0 21793065.033 8907955.747 9790535.847 10 0 60477 54000.00000 0 22735460.346 9330586.707 6793373.230 10 0 60477 54900.00000 0 23372280.304 9507839.061 3664069.717 10 0 60477 55800.00000 0 23664203.740 9479760.459 463489.083 10 0 60477 56700.00000 0 23582921.714 9293966.442 -2746108.368 10 0 60477 57600.00000 0 23112415.870 9003386.884 -5902284.155 10 0 60477 58500.00000 0 22249737.395 8663795.481 -8943643.711 10 0 60477 59400.00000 0 21005253.139 8331228.066 -11811037.497 10 0 60477 60300.00000 0 19402348.020 8059400.186 -14448716.960 10 0 60477 61200.00000 0 17476596.038 7897234.254 -16805422.128 10 0 60477 62100.00000 0 15274434.588 7886601.719 -18835379.309 10 0 60477 63000.00000 0 12851397.713 8060376.296 -20499189.433 10 0 60477 63900.00000 0 10269982.329 8440880.853 -21764589.959 10 0 60477 64800.00000 0 7597236.620 9038793.661 -22607076.027 10 0 60477 65700.00000 0 4902171.054 9852560.161 -23010369.494 10 0 60477 66600.00000 0 2253099.594 10868334.976 -22966727.492 10 0 60477 67500.00000 0 -284978.851 12060456.591 -22477085.284 10 0 60477 68400.00000 0 -2652850.720 13392434.829 -21551031.370 10 0 60477 69300.00000 0 -4799308.226 14818409.784 -20206615.771 10 0 60477 70200.00000 0 -6683028.958 16285021.270 -18469995.601 10 0 60477 71100.00000 0 -8274037.975 17733610.711 -16374924.867 10 0 60477 72000.00000 0 -9554693.103 19102663.539 -13962098.358 10 0 60477 72900.00000 0 -10520153.993 20330390.060 -11278362.150 10 0 60477 73800.00000 0 -11178316.962 21357336.926 -8375805.761 10 0 60477 74700.00000 0 -11549219.839 22128919.890 -5310753.319 10 0 60477 75600.00000 0 -11663943.101 22597771.747 -2142673.048 10 0 60477 76500.00000 0 -11563054.624 22725806.901 1066973.965 10 0 60477 77400.00000 0 -11294664.359 22485915.785 4255923.458 10 0 60477 78300.00000 0 -10912171.603 21863217.710 7362313.163 10 0 60477 79200.00000 0 -10471800.309 20855819.179 10325880.084 10 0 60477 80100.00000 0 -10030026.740 19475045.278 13089126.741 10 0 60477 81000.00000 0 -9641008.183 17745133.785 15598433.830 10 0 60477 81900.00000 0 -9354121.294 15702403.979 17805097.961 10 0 60477 82800.00000 0 -9211714.036 13393933.984 19666274.542 10 0 60477 83700.00000 0 -9247166.083 10875800.883 21145807.875 10 0 60477 84600.00000 0 -9483339.684 8210955.910 22214932.672 10 0 60477 85500.00000 0 -9931486.632 5466822.137 22852833.647 10 0 60478 0.00000 0 -10590657.866 2712713.772 23047052.503 10 0 60478 900.00000 0 -11447641.777 17181.847 22793734.420 10 0 60478 1800.00000 0 -12477433.870 -2554600.655 22097708.928 10 0 60478 2700.00000 0 -13644220.356 -4943311.304 20972403.481 10 0 60478 3600.00000 0 -14902834.683 -7097702.619 19439590.470 10 0 60478 4500.00000 0 -16200627.189 -8976487.852 17528972.024 10 0 60478 5400.00000 0 -17479670.166 -10549809.877 15277609.799 10 0 60478 6300.00000 0 -18679206.240 -11800232.370 12729210.091 10 0 60478 7200.00000 0 -19738237.349 -12723212.302 9933277.530 10 0 60478 8100.00000 0 -20598145.225 -13327034.503 6944153.398 10 0 60478 9000.00000 0 -21205232.572 -13632211.679 3819957.158 10 0 60478 9900.00000 0 -21513077.083 -13670375.901 621451.990 10 0 60478 10800.00000 0 -21484598.077 -13482709.211 -2589143.087 10 0 60478 11700.00000 0 -21093747.579 -13117980.618 -5749370.693 10 0 60478 12600.00000 0 -20326753.464 -12630273.615 -8797757.510 10 0 60478 13500.00000 0 -19182861.344 -12076501.439 -11675016.970 10 0 60478 14400.00000 0 -17674543.163 -11513816.365 -14325207.950 10 0 60478 15300.00000 0 -15827163.164 -10997023.590 -16696826.222 10 0 60478 16200.00000 0 -13678114.878 -10576109.899 -18743807.039 10 0 60478 17100.00000 0 -11275465.090 -10293992.106 -20426419.276 10 0 60478 18000.00000 0 -8676161.433 -10184580.641 -21712033.901 10 0 60478 18900.00000 0 -5943878.384 -10271240.032 -22575752.380 10 0 60478 19800.00000 0 -3146591.305 -10565711.005 -23000883.434 10 0 60478 20700.00000 0 -353979.270 -11067539.301 -22979259.672 10 0 60478 21600.00000 0 2365235.813 -11764034.909 -22511388.720 10 0 60478 22500.00000 0 4945903.956 -12630763.091 -21606436.602 10 0 60478 23400.00000 0 7328908.008 -13632546.361 -20282044.188 10 0 60478 24300.00000 0 9463369.704 -14724935.193 -18563980.624 10 0 60478 25200.00000 0 11308510.483 -15856085.724 -16485640.569 10 0 60478 26100.00000 0 12835091.086 -16968965.707 -14087394.965 10 0 60478 27000.00000 0 14026371.523 -18003796.245 -11415807.731 10 0 60478 27900.00000 0 14878552.871 -18900626.966 -8522733.320 10 0 60478 28800.00000 0 15400683.890 -19601936.555 -5464312.404 10 0 60478 29700.00000 0 15614037.732 -20055149.458 -2299884.886 10 0 60478 30600.00000 0 15550986.065 -20214962.940 909158.837 10 0 60478 31500.00000 0 15253418.913 -20045386.482 4100566.188 10 0 60478 32400.00000 0 14770777.442 -19521407.484 7212427.332 10 0 60478 33300.00000 0 14157783.113 -18630212.796 10184373.359 10 0 60478 34200.00000 0 13471959.218 -17371914.137 12958744.566 10 0 60478 35100.00000 0 12771049.460 -15759746.159 15481706.253 10 0 60478 36000.00000 0 12110442.436 -13819727.887 17704290.626 10 0 60478 36900.00000 0 11540710.502 -11589800.628 19583344.787 10 0 60478 37800.00000 0 11105366.654 -9118477.155 21082366.779 10 0 60478 38700.00000 0 10838933.840 -6463057.250 22172213.778 10 0 60478 39600.00000 0 10765408.018 -3687482.670 22831668.947 10 0 60478 40500.00000 0 10897179.840 -859919.516 23047856.139 10 0 60478 41400.00000 0 11234460.701 1949832.734 22816494.414 10 0 60478 42300.00000 0 11765237.832 4672998.923 22141987.198 10 0 60478 43200.00000 0 12465761.090 7244443.226 21037343.994 10 0 60478 44100.00000 0 13301541.757 9605133.605 19523935.518 10 0 60478 45000.00000 0 14228822.199 11704353.825 17631086.301 10 0 60478 45900.00000 0 15196455.283 13501571.461 15395511.870 10 0 60478 46800.00000 0 16148114.964 14967884.409 12860610.644 10 0 60478 47700.00000 0 17024745.241 16086985.809 10075623.720 10 0 60478 48600.00000 0 17767144.141 16855607.400 7094678.442 10 0 60478 49500.00000 0 18318573.425 17283423.184 3975734.214 10 0 60478 50400.00000 0 18627283.110 17392418.019 779451.295 10 0 60478 51300.00000 0 18648843.330 17215748.484 -2431994.966 10 0 60478 52200.00000 0 18348183.948 16796144.947 -5596130.663 10 0 60478 53100.00000 0 17701254.664 16183923.307 -8651406.045 10 0 60478 54000.00000 0 16696234.425 15434691.480 -11538399.694 10 0 60478 54900.00000 0 15334238.157 14606848.673 -14200979.916 10 0 60478 55800.00000 0 13629490.192 13758984.084 -16587400.028 10 0 60478 56700.00000 0 11608956.441 12947285.772 -18651305.815 10 0 60478 57600.00000 0 9311450.231 12223069.655 -20352635.485 10 0 60478 58500.00000 0 6786248.925 11630533.194 -21658394.752 10 0 60478 59400.00000 0 4091278.825 11204828.437 -22543292.474 10 0 60478 60300.00000 0 1290943.823 10970535.287 -22990225.153 10 0 60478 61200.00000 0 -1546312.110 10940598.776 -22990601.610 10 0 60478 62100.00000 0 -4350607.661 11115774.387 -22544502.341 10 0 60478 63000.00000 0 -7053284.652 11484604.070 -21660671.117 10 0 60478 63900.00000 0 -9589516.525 12023923.329 -20356339.551 10 0 60478 64800.00000 0 -11900757.524 12699877.517 -18656888.367 10 0 60478 65700.00000 0 -13936931.982 13469404.274 -16595352.075 10 0 60478 66600.00000 0 -15658273.939 14282119.538 -14211776.642 10 0 60478 67500.00000 0 -17036741.854 15082527.720 -11552442.425 10 0 60478 68400.00000 0 -18056950.833 15812463.099 -8668967.180 10 0 60478 69300.00000 0 -18716584.728 16413659.690 -5617306.291 10 0 60478 70200.00000 0 -19026272.182 16830341.445 -2456669.351 10 0 60478 71100.00000 0 -19008932.901 17011723.655 751626.078 10 0 60478 72000.00000 0 -18698622.585 16914320.068 3945341.401 10 0 60478 72900.00000 0 -18138925.805 16503958.281 7062521.647 10 0 60478 73800.00000 0 -17380965.016 15757418.102 10042694.570 10 0 60478 74700.00000 0 -16481109.881 14663623.347 12828040.929 10 0 60478 75600.00000 0 -15498483.491 13224336.145 15364513.384 10 0 60478 76500.00000 0 -14492370.516 11454323.605 17602882.500 10 0 60478 77400.00000 0 -13519636.247 9380988.656 19499689.781 10 0 60478 78300.00000 0 -12632264.930 7043479.198 21018089.583 10 0 60478 79200.00000 0 -11875120.668 4491311.292 22128563.904 10 0 60478 80100.00000 0 -11284024.853 1782562.352 22809496.434 10 0 60478 81000.00000 0 -10884230.752 -1018291.905 23047594.928 10 0 60478 81900.00000 0 -10689359.360 -3842808.221 22838153.692 10 0 60478 82800.00000 0 -10700841.379 -6621174.462 22185150.930 10 0 60478 83700.00000 0 -10907889.042 -9284869.360 21101178.623 10 0 60478 84600.00000 0 -11287999.428 -11769273.685 19607205.754 10 0 60478 85500.00000 0 -11807968.537 -14016124.958 17732178.697 10 0 60479 0.00000 0 -12425373.898 -15975713.860 15512465.998 10 0 60479 900.00000 0 -13090463.953 -17608732.152 12991156.275 10 0 60479 1800.00000 0 -13748373.921 -18887692.589 10217225.314 10 0 60479 2700.00000 0 -14341575.686 -19797865.176 7244584.176 10 0 60479 3600.00000 0 -14812457.095 -20337688.064 4131029.545 10 0 60479 4500.00000 0 -15105921.362 -20518637.296 937115.811 10 0 60479 5400.00000 0 -15171895.729 -20364561.206 -2275028.515 10 0 60479 6300.00000 0 -14967642.256 -19910508.157 -5442916.368 10 0 60479 7200.00000 0 -14459771.828 -19201097.905 -8504925.057 10 0 60479 8100.00000 0 -13625875.094 -18288506.250 -11401501.895 10 0 60479 9000.00000 0 -12455700.312 -17230149.047 -14076328.199 10 0 60479 9900.00000 0 -10951827.417 -16086164.295 -16477418.299 10 0 60479 10800.00000 0 -9129809.056 -14916799.389 -18558131.762 10 0 60479 11700.00000 0 -7017771.915 -13779814.306 -20278079.029 10 0 60479 12600.00000 0 -4655494.530 -12728010.477 -21603902.984 10 0 60479 13500.00000 0 -2092999.640 -11806989.381 -22509921.761 10 0 60479 14400.00000 0 611280.524 -11053234.809 -22978620.905 10 0 60479 15300.00000 0 3392689.982 -10492598.820 -23000986.105 10 0 60479 16200.00000 0 6182795.268 -10139254.135 -22576670.782 10 0 60479 17100.00000 0 8911991.134 -9995156.028 -21713995.987 10 0 60479 18000.00000 0 11512158.098 -10050035.289 -20429783.121 10 0 60479 18900.00000 0 13919262.316 -10281921.637 -18749023.097 10 0 60479 19800.00000 0 16075790.730 -10658174.741 -16704388.478 10 0 60479 20700.00000 0 17932921.281 -11136978.879 -14335598.072 10 0 60479 21600.00000 0 19452339.029 -11669237.881 -11688646.103 10 0 60479 22500.00000 0 20607623.664 -12200790.264 -8814910.690 10 0 60479 23400.00000 0 21385151.640 -12674851.102 -5770158.666 10 0 60479 24300.00000 0 21784476.327 -13034577.565 -2613465.800 10 0 60479 25200.00000 0 21818171.294 -13225649.873 593926.860 10 0 60479 26100.00000 0 21511144.141 -13198758.675 3789798.401 10 0 60479 27000.00000 0 20899450.416 -12911893.687 6912152.333 10 0 60479 27900.00000 0 20028657.984 -12332336.746 9900416.456 10 0 60479 28800.00000 0 18951830.929 -11438274.729 12696615.048 10 0 60479 29700.00000 0 17727217.936 -10219963.687 15246490.778 10 0 60479 30600.00000 0 16415742.290 -8680394.272 17500554.758 10 0 60479 31500.00000 0 15078398.845 -6835429.346 19415044.598 10 0 60479 32400.00000 0 13773667.020 -4713406.622 20952772.187 10 0 60479 33300.00000 0 12555048.072 -2354221.425 22083845.088 10 0 60479 34200.00000 0 11468829.656 192073.716 22786247.805 10 0 60479 35100.00000 0 10552171.058 2867095.897 23046271.836 10 0 60479 36000.00000 0 9831589.135 5606310.630 22858786.173 10 0 60479 36900.00000 0 9321908.285 8341473.360 22227342.845 10 0 60479 37800.00000 0 9025718.412 11003233.495 21164115.032 10 0 60479 38700.00000 0 8933363.687 13523793.718 19689668.393 10 0 60479 39600.00000 0 9023462.691 15839514.700 17832569.312 10 0 60479 40500.00000 0 9263938.201 17893357.328 15628836.886 10 0 60479 41400.00000 0 9613513.399 19637060.953 13121248.505 10 0 60479 42300.00000 0 10023611.401 21032966.828 10358511.908 10 0 60479 43200.00000 0 10440577.814 22055410.533 7394319.380 10 0 60479 44100.00000 0 10808132.007 22691625.071 4286302.287 10 0 60479 45000.00000 0 11069942.841 22942116.821 1094906.499 10 0 60479 45900.00000 0 11172219.011 22820498.778 -2117788.978 10 0 60479 46800.00000 0 11066203.325 22352788.472 -5289286.516 10 0 60479 47700.00000 0 10710464.189 21576200.728 -8357892.960 10 0 60479 48600.00000 0 10072886.108 20537486.903 -11263926.631 10 0 60479 49500.00000 0 9132273.872 19290891.442 -13950883.892 10 0 60479 50400.00000 0 7879501.550 17895812.787 -16366541.860 10 0 60479 51300.00000 0 6318156.843 16414267.995 -18463975.389 10 0 60479 52200.00000 0 4464652.819 14908268.455 -20202468.410 10 0 60479 53100.00000 0 2347801.581 13437217.507 -21548302.007 10 0 60479 54000.00000 0 7867.154 12055439.400 -22475404.398 10 0 60479 54900.00000 0 -2504863.401 10809943.094 -22965850.775 10 0 60479 55800.00000 0 -5131931.446 9738514.124 -23010204.048 10 0 60479 56700.00000 0 -7808904.199 8868213.649 -22607690.657 10 0 60479 57600.00000 0 -10467827.242 8214346.485 -21766208.698 10 0 60479 58500.00000 0 -13039830.747 7779940.133 -20502168.795 10 0 60479 59400.00000 0 -15457781.799 7555755.387 -18840171.130 10 0 60479 60300.00000 0 -17658873.419 7520826.836 -16812525.087 10 0 60479 61200.00000 0 -19587043.412 7643509.504 -14458620.805 10 0 60479 62100.00000 0 -21195123.354 7882986.738 -11824164.668 10 0 60479 63000.00000 0 -22446629.077 8191175.186 -8960293.306 10 0 60479 63900.00000 0 -23317118.883 8514946.154 -5922583.059 10 0 60479 64800.00000 0 -23795063.612 8798569.306 -2769973.857 10 0 60479 65700.00000 0 -23882193.011 8986275.409 436371.834 10 0 60479 66600.00000 0 -23593304.559 9024829.706 3634252.929 10 0 60479 67500.00000 0 -22955543.383 8866007.067 6761633.651 10 0 60479 68400.00000 0 -22007183.907 8468864.128 9757844.171 10 0 60479 69300.00000 0 -20795964.663 7801712.095 12564754.691 10 0 60479 70200.00000 0 -19377046.289 6843706.427 15127900.327 10 0 60479 71100.00000 0 -17810678.375 5585985.617 17397535.164 10 0 60479 72000.00000 0 -16159672.850 4032310.112 19329595.249 10 0 60479 72900.00000 0 -14486789.541 2199173.251 20886552.163 10 0 60479 73800.00000 0 -12852143.029 115378.087 22038140.954 10 0 60479 74700.00000 0 -11310738.928 -2178903.848 22761948.558 10 0 60479 75600.00000 0 -9910242.234 -4633554.237 23043851.495 10 0 60479 76500.00000 0 -8689070.639 -7190352.554 22878294.371 10 0 60479 77400.00000 0 -7674892.214 -9785168.264 22268403.590 10 0 60479 78300.00000 0 -6883589.994 -12350410.817 21225933.706 10 0 60479 79200.00000 0 -6318736.591 -14817636.667 19771046.860 10 0 60479 80100.00000 0 -5971600.661 -17120205.628 17931928.878 10 0 60479 81000.00000 0 -5821684.802 -19195876.520 15744248.684 10 0 60479 81900.00000 0 -5837772.111 -20989234.177 13250470.758 10 0 60479 82800.00000 0 -5979437.088 -22453846.487 10499033.373 10 0 60479 83700.00000 0 -6198956.863 -23554061.184 7543408.133 10 0 60479 84600.00000 0 -6443541.503 -24266366.913 4441058.928 10 0 60479 85500.00000 0 -6657788.470 -24580261.296 1252320.716 99